sat.trackr.live / text

‹ back to catalog

STARLINK-37890

NORAD 69533 · 2026-133AB

PAYLOAD ACTIVE UNKNOWN

§ Identity

Operator
Country
US
Launch date
2026-06-12
Launch site
AFETR
Launch vehicle
Mass (kg)
RCS (m²)

Purposes: comms

External: N2YO · Heavens-Above · Gunter

§ Orbital elements

Epoch: 2026-09-19T22:35:55.402080Z

Period
93.85 min
Inclination
53.1523°
Eccentricity
0.0002049
Mean motion
15.34397046 rev/d
Perigee alt
461.3 km
Apogee alt
464.1 km
Semi-major
6,840.8 km
B*
3.5173e-4
RAAN
232.6396°
Arg perigee
97.9591°
Mean anomaly
262.1644°
Rev number
1,667

§ Raw data

STARLINK-378901 69533U 26133AB  26262.94161345  .00011525  00000+0  35173-3 0  99972 69533  53.1523 232.6396 0002049  97.9591 262.1644 15.34397046 16670

JSON: /api/v1/satellites/69533 · /tle

For live sub-satellite position, see the globe view (requires WebGL).

§ Visibility from observer

Set your observer location to see the next 7 days of passes ≥ 10°. The values pass through the URL so the page stays shareable.

No JS? Fill the form by hand. The geolocation button needs JavaScript.